Theta_e
315 318 319 319 318 317 317 317 317 318 317 319 319 319 319 318 318 318 318 319 318 318 318 318 318 316 316 316 315 315 314 314 315 315 315 315 316 318 319 317 315 314 312 310 308 307 306 305 304 304 303 303 304 304 304 306 307 308 309 311 313 314 314 315 317 319 321 321 322 322 322 322 322 322 323 323 322 322 322 321 321 321 320 320 319 319
316 319 320 319 317 317 318 318 319 319 319 319 319 319 319 319 318 317 318 318 317 317 317 317 317 316 315 315 314 315 315 315 315 315 316 317 318 319 319 316 314 313 311 309 307 306 305 304 303 303 302 302 302 303 303 304 305 306 308 309 310 312 312 313 314 316 318 319 320 320 320 320 320 320 320 320 320 321 321 320 320 319 318 318 317 318
319 320 319 317 317 318 318 319 319 319 320 320 319 320 320 319 318 318 318 318 316 316 316 316 315 315 315 315 315 315 315 316 316 317 318 319 317 317 316 314 312 311 309 308 306 305 304 303 302 301 301 301 301 302 302 303 303 305 306 307 309 310 310 311 311 313 314 316 317 317 317 318 318 318 318 318 318 319 319 319 319 318 317 316 316 316
322 320 318 317 318 318 318 319 319 319 319 320 320 320 319 319 319 319 319 318 316 315 316 316 316 315 315 315 315 316 316 317 317 317 318 317 315 314 313 312 310 309 308 307 305 304 303 302 301 300 300 300 300 301 301 301 302 303 305 306 307 308 308 309 309 310 311 312 314 315 315 315 315 315 316 316 316 316 316 317 317 316 315 315 314 314
322 320 319 318 318 319 319 320 320 319 319 320 321 320 319 319 320 320 318 317 316 316 317 318 318 318 318 318 318 317 318 317 316 315 316 316 314 313 312 310 309 308 307 306 304 303 302 301 300 300 300 299 299 300 300 300 301 302 303 304 305 306 306 307 308 308 309 310 311 311 311 311 311 311 311 312 312 312 313 313 314 314 313 313 312 312
320 319 319 318 318 319 320 319 319 320 319 320 322 323 321 319 320 321 320 320 318 318 319 319 322 322 320 321 321 319 319 319 316 314 314 314 313 312 311 309 309 307 306 304 303 302 301 300 300 299 299 299 299 299 299 299 299 300 302 303 303 304 304 305 306 307 307 308 308 308 309 309 309 309 309 309 309 310 310 310 310 310 310 310 310 311
318 318 320 320 320 321 322 321 320 320 319 319 323 325 323 320 321 322 321 321 319 318 318 318 321 321 319 320 321 320 320 317 315 314 313 312 311 310 309 308 307 306 305 304 302 301 300 299 299 298 298 298 298 298 299 299 298 299 300 300 301 302 303 304 305 305 306 306 306 307 307 307 307 307 307 307 308 308 308 308 308 308 308 308 308 308
317 319 321 320 319 321 322 321 321 320 320 322 322 323 322 319 320 320 319 320 319 317 317 318 320 320 320 321 320 320 320 316 313 313 312 311 311 309 308 307 306 305 304 303 302 301 300 299 298 298 297 297 298 298 298 298 298 298 298 298 299 299 301 302 303 304 304 305 305 306 306 306 306 306 306 306 306 306 306 306 306 306 306 306 306 306
317 321 323 321 321 322 320 320 323 321 321 323 320 317 318 317 317 317 318 319 318 318 320 321 320 322 324 322 321 322 319 315 313 312 311 311 310 308 307 306 305 304 303 302 301 300 299 298 298 297 297 297 297 297 298 298 297 297 297 297 297 298 298 300 301 303 303 304 304 304 304 305 305 305 305 305 305 305 305 304 304 304 304 304 304 304
318 317 319 321 322 321 319 321 326 325 321 319 317 317 317 317 318 318 318 318 318 320 321 322 321 324 327 325 322 323 318 314 313 312 311 311 309 307 306 305 304 303 302 301 300 299 298 298 297 297 296 296 296 296 297 297 297 297 296 296 296 296 297 297 299 300 301 302 302 302 303 303 303 303 304 304 304 304 304 304 304 303 303 303 303 303
315 312 313 318 319 318 318 320 321 323 320 317 317 318 319 320 320 318 318 317 319 323 324 322 322 322 327 329 321 319 317 314 313 312 311 310 308 306 305 304 303 302 302 301 299 298 297 297 297 296 296 295 295 295 296 296 296 296 296 296 296 296 296 296 296 297 297 298 299 299 300 301 301 301 302 302 302 303 303 303 303 303 303 303 302 302
316 314 315 318 317 315 319 319 317 317 316 315 316 316 319 323 321 319 319 318 321 326 323 321 322 322 327 329 321 317 316 313 313 312 310 309 307 306 305 303 303 302 301 300 299 298 297 297 296 296 295 295 294 294 295 295 295 295 295 295 296 295 295 295 295 295 295 295 296 297 297 298 299 299 300 300 300 301 301 301 302 302 302 302 302 302
321 320 317 318 316 314 318 318 317 316 315 315 315 315 320 325 322 321 323 323 324 326 319 318 323 324 325 323 318 319 316 313 313 312 310 308 306 305 304 303 302 302 301 300 299 298 297 296 296 295 295 295 294 294 294 294 294 294 294 294 294 294 295 295 295 295 294 294 294 295 295 296 296 297 298 298 298 299 299 300 300 300 300 301 301 301
323 323 319 319 318 315 317 317 319 320 316 314 317 320 323 323 320 320 322 322 323 323 319 318 319 322 323 320 316 316 313 312 312 311 309 307 305 304 303 302 302 301 301 299 299 298 297 295 295 295 295 294 294 294 294 294 294 293 293 293 293 293 293 294 295 295 294 294 294 294 294 294 295 295 296 296 296 297 297 298 298 298 299 299 299 300
321 322 320 322 321 316 316 317 320 322 319 316 318 323 323 321 320 320 320 321 322 323 321 319 320 321 322 320 315 312 310 310 308 307 306 305 304 303 302 301 301 300 300 300 299 298 296 295 295 295 294 294 294 293 293 293 293 293 293 293 292 293 292 293 293 293 293 294 294 294 294 294 294 294 294 294 294 295 295 296 296 297 297 298 298 298
319 320 321 322 318 315 317 318 318 321 322 319 317 321 323 322 321 321 322 323 322 322 320 319 322 321 318 318 315 312 309 308 306 305 305 304 303 303 302 301 300 300 300 299 299 298 295 294 294 294 293 294 293 293 292 292 293 293 293 292 292 292 292 292 292 292 291 292 293 294 294 294 294 294 293 293 293 293 293 294 294 295 295 296 296 297
317 319 323 321 316 315 318 319 318 320 322 319 319 322 322 321 321 321 322 321 321 322 320 318 320 319 316 318 315 312 309 307 306 305 304 304 303 302 301 300 300 299 299 298 298 297 295 294 294 293 293 292 292 292 291 291 292 292 292 292 291 291 292 292 291 291 290 290 290 291 292 293 293 293 293 293 293 293 292 292 293 293 293 294 294 295
319 319 321 321 319 318 315 315 316 316 318 319 320 321 319 319 319 319 320 320 321 322 320 317 319 317 317 319 315 313 311 308 306 304 303 302 301 300 300 300 299 299 298 297 297 296 294 293 293 292 292 292 292 292 291 291 291 291 291 291 291 291 290 291 291 291 290 290 289 289 289 290 290 291 291 291 292 292 292 292 292 292 292 292 292 293
321 320 321 322 323 319 313 314 317 317 317 317 317 317 317 320 320 319 319 320 321 321 319 318 319 317 317 318 315 314 312 308 305 304 302 301 300 300 299 299 298 298 297 297 296 295 294 293 292 292 292 292 292 292 291 291 290 290 290 290 290 290 289 289 289 290 290 290 289 289 288 288 288 289 289 289 290 290 291 291 291 292 292 292 292 292
320 321 322 322 321 318 315 317 320 319 317 314 313 315 317 319 319 319 319 320 320 320 319 319 318 318 317 314 313 312 310 307 305 304 302 301 301 300 300 299 298 297 297 296 296 295 294 293 292 292 292 292 292 291 291 291 290 289 289 289 289 289 288 289 289 289 289 289 288 288 287 287 287 287 287 288 288 288 288 288 289 290 291 291 292 291
320 321 321 319 317 318 319 319 320 319 317 316 315 315 315 317 318 318 317 318 319 319 319 318 318 318 314 310 308 308 307 306 304 302 302 301 300 300 299 299 298 297 297 296 295 295 294 293 293 292 292 292 292 291 291 290 290 289 288 288 288 288 288 288 288 288 288 288 288 287 287 287 286 286 286 286 287 287 286 286 287 287 288 289 290 291
318 319 320 319 319 319 318 317 317 317 317 318 318 317 316 317 319 318 317 317 317 318 319 318 318 319 312 306 306 305 304 305 303 302 302 300 300 300 299 298 297 296 296 296 295 294 293 293 292 292 292 292 292 292 291 291 290 289 288 288 287 287 287 287 287 287 288 287 287 287 286 286 286 286 286 286 286 286 286 286 285 285 286 286 287 288
316 318 318 319 318 317 316 315 317 317 316 317 318 318 319 319 318 319 318 318 318 318 318 318 318 319 312 305 305 304 304 304 302 304 306 302 299 299 298 297 296 296 295 295 294 293 293 292 292 292 292 292 292 292 291 291 290 290 289 288 287 287 287 287 287 287 287 287 287 287 286 286 286 285 285 285 285 285 285 285 285 285 285 285 285 286
315 317 317 317 317 316 315 314 315 317 317 317 317 316 317 317 315 316 316 315 315 315 316 317 317 319 314 307 305 305 305 304 302 304 307 302 299 298 297 296 296 295 295 295 294 293 293 292 292 292 292 292 292 292 291 291 290 290 289 288 288 287 287 287 287 287 287 288 287 288 287 287 286 286 285 285 285 285 285 285 285 285 285 285 285 285
316 316 315 315 316 315 314 312 314 318 317 316 315 313 314 314 313 314 314 313 314 314 315 316 316 318 316 310 306 306 305 305 303 303 304 302 300 299 297 296 296 295 295 294 294 294 293 292 292 292 292 292 292 291 291 291 290 290 289 289 288 288 287 287 287 287 287 287 287 287 287 287 286 286 286 286 285 285 284 284 284 284 284 284 284 285
314 314 314 314 314 314 312 311 313 316 314 312 313 313 312 312 312 312 313 313 313 313 312 313 312 313 313 311 308 307 307 306 305 304 304 303 301 299 297 297 296 295 295 294 294 294 293 292 292 291 291 291 291 291 291 290 290 290 289 289 288 288 287 287 287 286 286 287 286 286 287 287 286 286 286 286 286 285 285 284 284 284 284 284 284 284
313 313 314 314 313 312 311 311 312 313 312 311 312 312 311 311 311 311 312 311 311 311 310 310 310 309 309 309 307 308 308 307 306 306 305 302 300 298 297 296 295 295 295 294 294 294 294 293 292 291 291 291 291 291 290 290 290 290 290 289 289 288 287 287 286 286 286 286 286 286 286 286 286 286 286 286 286 285 284 284 284 283 283 283 283 284
311 312 312 312 312 312 311 311 311 310 310 309 310 310 309 309 309 309 310 309 309 310 308 308 308 308 307 306 306 305 305 304 305 307 305 301 298 298 297 296 295 294 294 294 294 294 294 294 293 291 291 291 291 290 290 290 290 290 290 289 289 288 288 287 286 286 286 286 286 285 285 285 285 285 285 285 285 284 284 284 284 283 283 283 283 283
309 310 309 308 308 309 308 308 307 307 307 307 307 307 307 307 307 306 307 307 307 308 307 306 307 306 305 304 304 304 303 302 303 304 302 299 298 297 296 295 295 295 295 295 295 295 295 295 293 291 291 291 291 290 290 290 290 289 289 289 288 288 288 287 287 286 286 285 285 285 285 285 285 285 285 285 284 284 284 284 283 283 283 283 282 282
307 307 307 306 306 306 306 306 306 306 306 305 305 305 305 305 305 304 304 304 305 305 305 305 305 304 304 303 303 302 301 301 300 300 299 298 297 297 296 296 296 296 297 296 296 296 295 294 292 291 292 291 291 290 290 290 290 289 289 288 288 288 288 287 287 287 286 286 286 285 285 285 285 284 284 284 284 284 284 284 284 283 283 283 283 283
307 306 305 305 306 305 304 305 305 305 304 304 303 303 303 303 303 303 303 303 303 303 303 304 304 303 303 302 301 300 299 298 297 297 297 296 296 295 295 295 295 295 296 296 296 296 296 294 291 291 291 291 291 291 290 290 290 289 289 288 288 288 288 288 287 287 286 286 286 285 285 285 284 284 284 284 284 284 284 284 284 284 284 284 284 283
306 306 305 305 305 303 303 303 303 303 303 303 302 302 302 302 302 302 302 302 302 302 302 302 302 302 302 301 299 297 296 296 295 295 294 294 294 293 293 293 294 294 294 294 295 295 296 295 291 290 291 291 291 291 291 290 290 290 290 289 289 289 288 288 288 287 286 286 285 285 285 284 284 284 284 284 283 283 283 283 283 283 284 284 284 284
305 304 304 304 304 303 302 301 301 302 302 301 300 300 300 301 301 301 301 301 301 302 302 301 301 302 303 302 299 295 294 293 293 292 293 293 293 292 292 292 293 293 293 293 293 293 294 293 291 291 291 291 291 291 290 290 290 290 290 290 289 289 289 288 288 287 286 286 285 285 284 284 283 283 283 283 283 283 283 283 283 283 283 283 283 283
303 303 302 302 302 301 300 300 300 301 299 299 299 300 300 300 300 301 301 300 300 300 300 299 300 302 301 298 295 293 292 292 291 292 292 292 292 292 292 292 292 292 292 292 292 292 290 290 290 291 291 291 290 290 290 290 289 290 289 289 289 288 288 287 287 286 285 285 285 284 284 284 283 283 283 283 283 282 282 282 282 282 282 282 281 281
302 302 301 301 301 300 299 299 299 298 298 299 299 300 299 298 298 299 299 299 298 298 298 298 297 297 295 293 292 292 291 291 292 292 292 292 292 292 293 293 293 292 291 292 292 291 289 289 290 289 289 289 289 289 289 288 288 288 288 287 286 286 285 285 284 284 284 284 284 284 283 283 283 283 282 282 282 282 282 282 282 282 281 281 280 280
300 300 300 299 299 299 298 299 298 297 296 297 299 298 297 297 298 298 298 298 297 296 298 298 295 292 292 292 291 291 291 292 292 293 294 293 293 293 293 294 293 292 290 291 290 289 289 289 288 287 287 287 287 287 286 286 286 286 285 285 285 284 283 282 282 282 282 282 282 282 283 282 282 282 282 282 281 281 281 281 281 281 281 280 279 279
299 299 299 298 298 298 298 298 298 297 296 296 297 297 297 297 297 297 297 299 298 297 298 298 293 291 292 292 291 291 292 292 292 293 294 293 292 293 292 292 292 291 290 289 289 288 288 288 287 286 286 286 285 285 284 283 283 283 283 283 282 282 281 281 281 281 281 280 281 281 281 280 280 280 280 280 280 279 279 279 279 279 279 279 278 278
298 298 298 298 298 298 298 297 297 296 296 297 296 296 296 297 296 296 297 297 299 299 299 297 293 291 291 291 291 291 292 292 292 293 293 292 291 292 291 290 290 290 289 289 288 287 287 286 285 284 284 283 283 283 282 281 281 280 280 280 280 279 279 279 278 278 278 278 278 278 278 278 278 278 278 278 277 277 276 277 277 277 277 277 277 277
295 296 297 298 298 298 297 297 296 295 296 298 297 295 296 296 296 295 295 295 297 299 296 293 292 291 290 291 291 291 291 291 292 293 292 291 290 290 290 290 289 289 288 287 286 285 285 284 283 282 281 281 281 280 279 278 278 277 277 278 277 277 277 276 276 276 276 276 276 275 275 275 275 275 275 275 274 274 274 274 274 275 275 275 275 275
294 295 297 297 297 297 297 296 296 295 295 296 296 295 296 296 295 295 293 293 296 297 295 292 292 292 291 291 291 291 292 292 292 292 292 291 289 289 289 289 288 287 287 286 285 284 283 282 281 280 280 279 278 277 277 276 275 275 275 275 275 275 275 274 274 274 273 273 273 272 272 272 272 272 272 272 271 271 271 272 272 272 273 273 273 273
294 295 296 296 295 296 296 295 295 295 295 295 295 296 296 296 295 294 293 293 296 296 295 294 294 293 292 292 292 292 292 293 292 292 292 291 290 289 289 288 287 286 285 284 283 282 281 280 279 278 278 277 276 275 275 274 273 273 273 273 273 273 272 272 271 271 271 270 269 269 268 269 269 269 269 268 268 268 268 269 269 270 270 271 271 272
294 295 296 295 294 294 295 295 294 294 295 296 296 295 296 296 295 295 294 294 296 296 294 294 294 294 293 292 292 292 292 292 292 292 291 291 291 290 288 286 286 285 284 283 282 281 280 278 277 276 275 274 274 273 273 272 271 271 271 271 271 270 270 269 269 268 267 266 266 266 265 266 265 265 265 265 265 266 266 266 266 267 267 268 269 269
294 295 295 295 294 294 294 294 294 294 295 294 294 294 295 296 295 295 294 293 294 296 295 294 294 294 293 293 292 292 292 291 291 291 290 290 290 289 286 285 284 283 282 282 280 279 278 276 275 274 273 273 272 272 271 270 270 269 269 269 269 268 267 267 266 265 265 264 264 264 263 263 263 263 263 264 264 264 264 264 264 265 266 266 267 267
294 294 293 293 293 294 293 293 294 295 294 294 294 294 295 296 296 295 294 294 294 295 294 294 293 293 293 292 292 292 291 291 291 290 290 290 289 288 285 284 283 282 281 280 278 277 276 274 273 272 271 271 270 270 269 268 268 267 267 267 267 266 265 265 264 264 263 263 263 262 262 262 262 262 262 262 262 262 263 263 263 264 264 265 265 266
294 294 293 292 292 293 293 293 294 294 293 294 295 295 294 295 294 294 294 294 294 294 293 293 293 293 292 292 291 291 291 290 290 289 289 288 288 286 284 282 281 280 279 277 276 275 274 272 271 270 270 269 269 268 267 267 266 266 266 266 265 264 264 263 263 263 262 262 262 262 262 262 262 262 262 262 262 262 262 263 263 263 264 264 265 265
293 293 292 292 292 292 292 292 292 292 292 293 294 294 294 294 293 293 293 293 293 293 293 293 293 292 292 291 290 290 290 289 289 289 288 287 285 283 282 281 280 278 277 276 274 273 272 271 270 269 268 268 267 267 266 265 265 265 265 264 264 263 263 263 262 262 261 261 261 261 261 261 261 261 261 261 262 262 262 262 263 263 263 263 264 264
292 293 292 292 292 291 291 292 292 292 292 292 292 293 293 293 293 293 292 292 292 293 293 293 293 292 290 289 289 289 289 288 288 287 286 285 283 281 280 279 278 276 275 274 272 271 271 269 268 268 267 266 266 265 265 264 264 264 264 263 263 263 262 262 262 261 261 261 261 261 261 261 261 261 261 261 261 261 262 262 262 262 262 263 263 263
293 293 292 292 292 291 291 291 291 292 292 292 292 292 292 292 292 292 292 292 292 292 292 291 290 290 289 288 288 288 287 287 286 285 284 282 281 279 278 276 275 274 273 272 271 270 269 268 267 266 266 265 265 264 263 263 264 263 263 263 263 262 262 261 261 261 261 261 261 261 261 261 260 261 261 261 261 261 261 261 261 262 262 262 262 262
293 293 292 292 292 292 292 292 292 292 292 291 291 291 291 291 291 291 291 291 291 291 290 288 287 287 287 287 286 286 285 285 283 282 281 280 279 277 275 274 273 272 271 270 269 268 267 267 266 265 264 264 263 263 263 263 263 263 263 262 262 262 261 261 261 261 261 261 261 260 260 260 260 260 260 260 260 260 260 261 261 261 262 262 263 263
292 292 292 292 292 292 292 292 292 291 291 291 291 291 291 291 291 291 291 291 291 291 290 288 285 284 283 283 282 283 283 282 280 279 278 277 276 275 273 272 271 270 269 269 268 267 266 266 265 264 263 263 263 262 262 263 263 263 263 262 262 262 261 261 261 261 261 261 260 260 260 260 260 260 260 260 260 260 260 261 261 262 263 263 264 264
292 292 292 292 292 292 291 291 292 292 291 291 291 292 292 292 292 291 291 291 291 290 288 288 286 284 282 280 279 279 280 279 277 276 275 275 273 272 271 270 269 268 268 267 266 266 265 264 264 263 262 262 262 262 262 262 262 263 262 262 262 262 261 261 261 261 261 260 260 260 260 260 259 259 259 259 260 260 260 260 261 261 262 263 264 265
Wind_Speed
3 3 3 4 6 8 10 10 11 11 10 11 9 8 8 7 7 8 9 9 7 7 6 6 8 9 9 10 12 15 13 12 12 9 9 10 6 3 7 8 11 11 9 14 22 24 24 24 24 23 24 24 24 26 25 23 22 20 17 15 13 8 3 0 3 5 8 10 10 11 11 12 12 13 14 15 16 16 15 15 15 17 19 19 22 27
2 3 5 7 10 12 11 10 10 10 10 9 7 7 6 6 8 8 10 11 5 2 4 6 8 8 9 13 16 16 12 10 11 10 8 4 4 6 8 10 11 9 9 13 17 19 22 23 23 23 24 25 25 25 26 26 24 22 20 19 18 12 7 4 1 2 3 5 6 7 8 9 10 11 12 14 15 16 16 15 14 15 16 16 18 22
2 5 10 12 12 11 11 10 10 10 9 7 6 6 6 6 7 8 9 7 2 1 4 7 9 8 10 16 17 15 11 9 9 4 3 6 9 7 8 10 9 9 10 11 11 14 19 22 23 24 25 25 24 25 26 26 25 24 22 21 20 15 11 8 4 3 3 1 2 2 2 3 5 5 7 9 11 13 15 15 16 16 15 16 17 20
4 5 10 11 10 10 10 8 8 8 6 4 4 4 5 6 6 5 4 5 6 4 7 9 8 6 11 15 14 13 10 8 2 8 11 10 10 10 10 10 9 11 10 10 9 11 15 19 22 24 24 24 24 25 27 26 25 25 24 22 20 16 13 11 7 4 4 3 1 2 1 1 2 2 3 5 7 9 11 13 16 16 16 16 17 20
7 7 5 4 6 7 7 6 6 5 4 4 5 5 7 7 7 5 4 7 7 6 6 6 6 5 8 9 7 6 5 3 5 13 12 9 10 10 11 12 11 11 9 9 9 9 12 16 20 23 23 23 24 25 26 26 26 24 23 22 20 16 13 13 10 6 5 4 2 1 0 1 0 1 3 5 6 8 10 11 14 15 16 16 16 19
7 6 3 2 3 3 3 5 6 4 3 5 5 6 7 6 6 5 6 6 4 4 2 3 4 4 4 5 6 5 6 3 7 12 10 9 9 8 10 10 10 10 9 8 8 9 11 14 18 21 23 23 24 26 26 26 26 24 22 20 19 18 16 14 12 8 7 6 4 4 4 4 3 2 2 4 4 5 7 8 10 12 14 15 16 18
3 0 3 1 2 2 3 5 6 4 3 4 3 3 4 3 4 4 5 3 1 4 3 1 3 5 4 5 7 10 8 0 9 10 9 8 8 8 8 8 8 8 7 7 8 8 10 13 16 19 22 24 25 26 26 26 27 25 23 21 19 18 16 15 14 10 9 8 7 6 5 5 5 5 5 5 4 2 2 3 5 8 10 12 13 16
2 3 4 2 1 2 3 5 5 5 4 3 2 3 5 4 4 4 3 2 4 4 5 5 5 5 5 5 10 12 5 7 10 9 8 7 7 8 8 8 8 8 6 6 7 7 10 13 16 18 21 24 24 25 26 26 26 25 23 21 20 19 17 15 13 12 11 10 9 8 7 7 7 7 6 6 6 4 2 2 4 6 8 10 11 12
1 4 4 4 4 3 5 5 3 5 4 2 0 2 4 3 3 3 3 4 4 4 5 5 6 3 5 5 8 8 6 9 8 8 7 7 8 9 9 8 7 7 7 6 7 8 10 13 17 19 21 22 24 25 26 26 25 24 23 22 21 20 19 16 13 12 12 10 8 8 8 9 8 8 7 6 6 6 5 3 4 5 7 9 10 11
0 2 3 4 5 4 5 3 2 0 3 1 1 1 2 3 4 4 4 3 4 3 5 6 6 3 4 5 5 1 6 6 6 7 6 6 7 8 8 8 7 6 6 6 7 8 11 15 18 19 20 22 24 25 25 26 25 24 24 24 24 22 20 18 16 14 12 10 9 9 10 11 10 9 9 8 7 7 7 7 5 5 6 8 10 10
1 2 1 2 5 4 3 2 3 2 1 1 2 2 4 5 4 3 3 1 2 3 5 7 8 7 3 5 2 3 3 8 8 6 6 7 7 7 7 7 6 6 5 6 6 8 12 16 18 19 20 21 24 25 25 25 25 24 24 25 25 24 22 20 19 17 15 13 12 11 11 11 12 11 10 10 9 9 8 9 9 8 7 7 8 10
2 1 1 2 4 2 4 2 1 2 3 2 1 2 4 4 1 1 0 1 1 4 4 5 1 6 3 4 2 4 2 10 11 9 10 9 8 7 6 6 6 6 6 6 6 6 9 12 15 17 18 19 22 24 25 23 22 22 23 24 25 25 24 22 21 20 19 18 16 14 14 14 13 12 11 11 11 11 10 10 10 9 9 8 8 9
2 5 5 1 2 1 3 1 2 2 3 4 2 0 2 3 1 1 1 1 3 4 3 1 3 0 4 5 8 9 4 4 6 9 11 11 10 8 6 6 6 5 6 5 5 6 6 7 11 13 15 18 20 22 23 21 19 19 20 22 24 24 23 22 23 23 23 23 22 20 18 17 15 13 12 11 11 10 10 10 10 10 10 10 10 10
2 2 4 3 1 2 5 3 1 1 2 4 4 3 3 1 2 3 3 2 3 3 3 1 2 3 4 5 6 4 4 8 9 9 10 10 11 9 7 7 6 6 5 5 5 5 5 8 11 14 16 18 20 21 21 20 18 18 20 22 22 22 22 22 23 24 25 26 25 24 23 21 19 17 14 12 11 10 9 9 10 10 11 11 11 12
2 3 3 4 1 5 7 5 2 2 4 5 3 4 3 2 3 4 3 3 4 4 4 2 2 2 2 1 2 8 9 9 10 10 10 10 9 8 7 7 6 5 5 5 5 5 6 10 13 13 15 16 17 18 17 16 16 16 19 20 20 20 21 22 22 22 24 25 25 25 24 24 23 21 18 16 14 12 11 11 10 10 11 11 12 12
4 4 3 2 2 6 6 4 1 3 1 2 1 3 1 3 3 3 3 4 4 5 6 4 4 3 2 6 3 8 10 9 10 10 10 9 8 7 7 6 5 5 5 5 5 5 7 11 12 13 14 14 14 14 14 13 13 14 16 17 18 17 17 19 20 21 22 23 24 24 24 24 24 23 21 19 18 17 16 14 13 12 12 12 12 12
3 4 2 2 1 3 2 1 1 2 1 1 2 2 3 2 3 1 4 5 4 5 6 4 5 5 4 7 4 8 11 8 8 8 9 8 7 7 6 5 5 5 5 5 4 4 6 10 11 11 12 12 12 12 12 11 11 12 13 14 15 15 16 17 18 20 22 23 24 24 24 24 23 22 21 19 18 18 18 16 15 15 14 13 13 14
1 3 2 3 2 1 2 3 2 1 2 2 1 2 2 1 1 1 3 3 4 5 5 5 8 7 4 4 1 8 9 8 7 8 8 7 7 7 5 5 5 4 3 3 3 4 6 8 9 9 8 8 8 8 9 10 11 11 12 12 13 14 16 16 17 18 20 22 23 24 24 24 23 22 20 20 19 19 19 18 17 17 16 15 15 15
1 1 3 2 0 1 2 1 1 2 2 3 2 1 2 0 1 2 1 1 4 6 4 5 8 8 5 4 3 2 7 9 8 7 8 7 6 6 4 4 3 1 0 1 2 2 3 5 6 6 7 7 7 7 8 9 10 11 12 13 14 15 16 17 18 18 19 20 21 22 22 22 22 22 22 22 22 22 22 21 19 18 17 16 15 15
2 0 2 2 3 2 1 1 1 3 2 3 2 2 1 2 3 2 2 2 5 6 5 5 7 6 3 3 6 6 5 8 7 6 6 5 5 5 4 4 3 2 2 1 1 1 0 2 3 5 7 8 8 9 9 9 11 12 13 14 16 17 17 18 19 19 19 20 20 20 20 21 21 21 22 22 22 23 23 22 21 20 19 18 17 16
1 1 2 1 2 2 1 2 3 3 1 2 2 1 1 1 1 2 2 3 4 5 5 6 7 4 1 4 6 8 8 7 7 7 5 4 4 4 4 4 3 3 3 3 2 2 1 1 2 4 5 6 7 7 7 8 9 11 14 15 16 17 18 18 18 18 18 18 19 20 20 20 21 21 21 21 21 21 21 21 22 21 20 20 19 18
1 0 2 2 2 2 3 3 2 3 2 1 2 3 4 3 2 3 5 4 4 4 4 6 8 4 0 2 4 6 5 6 7 7 5 4 4 4 5 5 5 4 4 4 3 2 2 2 3 5 6 5 5 5 6 7 9 11 14 15 16 17 17 17 17 17 17 17 18 19 19 19 20 20 20 20 20 20 20 20 20 20 21 21 20 19
2 2 1 4 5 6 8 7 5 6 7 6 4 2 1 1 2 3 5 3 2 3 1 3 6 2 1 2 2 5 5 6 7 8 7 6 6 6 6 5 5 4 4 4 3 4 4 4 5 7 7 6 5 5 7 8 10 12 13 14 15 16 15 15 15 15 15 15 15 16 16 17 18 18 19 19 20 20 20 20 20 20 20 20 20 19
3 2 1 3 4 6 9 7 3 3 4 4 2 2 3 1 1 3 3 1 1 3 2 4 5 2 2 4 1 3 5 6 6 7 7 6 6 6 6 6 5 4 4 4 4 4 5 6 6 6 5 4 4 6 7 8 9 10 11 12 14 15 15 15 15 15 14 14 14 14 14 15 16 16 17 17 18 19 19 20 20 21 21 21 21 20
0 1 2 1 3 4 6 5 2 4 4 1 0 1 1 1 4 3 3 2 2 4 5 5 5 2 2 3 3 3 5 5 4 5 6 6 5 5 5 5 4 4 3 3 3 3 4 4 5 4 4 4 5 7 8 9 9 10 10 11 12 13 15 15 16 17 16 15 15 14 14 14 15 16 16 16 17 17 18 18 19 20 21 21 22 21
1 1 2 2 3 4 5 5 1 1 3 1 2 3 3 4 6 5 2 4 5 4 4 5 6 6 3 4 6 3 3 4 4 5 6 5 4 4 4 3 3 3 3 3 3 3 3 4 3 2 2 3 4 6 8 8 9 10 11 12 12 12 14 15 15 16 16 15 15 15 14 14 15 16 16 16 17 18 18 19 19 20 21 21 21 22
1 1 3 5 6 6 7 6 4 3 3 4 6 8 8 7 6 4 4 6 5 4 5 8 10 10 10 11 11 5 1 3 7 7 7 4 3 4 4 2 1 0 2 2 2 2 3 3 3 2 2 3 4 5 7 7 9 10 10 11 11 11 12 13 13 14 14 13 14 14 14 14 16 17 17 17 18 20 21 21 22 23 23 22 22 23
2 2 5 6 7 7 8 8 8 7 6 6 8 10 11 9 7 6 8 7 4 5 8 10 10 11 12 12 12 11 10 11 10 7 6 5 5 4 4 2 0 2 4 3 3 4 4 4 4 3 3 3 4 5 6 7 8 9 9 10 10 9 11 11 11 13 13 12 13 14 14 16 18 18 18 17 19 22 23 23 25 26 26 25 25 25
3 3 5 4 6 8 8 8 8 7 7 7 8 11 12 12 12 11 10 8 5 7 10 10 12 14 13 13 14 13 11 8 5 1 3 5 5 5 4 2 2 4 5 5 5 6 6 6 5 5 5 5 5 6 8 8 10 10 10 12 11 10 11 11 12 14 14 13 13 14 14 16 18 19 19 20 23 24 24 25 27 29 30 30 29 28
2 3 4 2 4 7 8 8 6 5 6 8 10 12 13 15 15 12 12 12 11 12 13 14 17 17 15 13 10 5 3 3 3 4 5 5 5 4 3 3 4 5 5 6 6 6 6 7 7 7 7 6 7 9 10 11 12 13 13 14 13 13 13 13 14 15 16 16 16 16 16 18 19 20 21 23 25 27 28 29 30 31 33 33 32 32
1 2 1 2 2 7 7 5 3 3 7 10 13 16 17 17 16 14 14 13 12 13 14 15 16 15 9 3 1 3 3 3 4 4 4 3 4 3 0 2 4 5 5 5 6 6 6 7 7 8 9 10 12 13 14 15 16 16 17 16 16 15 15 15 16 17 17 18 19 19 20 22 24 24 25 27 28 29 31 31 32 34 35 35 35 35
1 1 1 1 2 7 8 5 4 5 8 11 16 20 19 16 14 13 12 10 11 13 13 12 12 9 3 3 4 3 4 5 5 4 4 3 3 3 2 5 5 4 5 6 6 6 6 6 7 9 11 13 14 15 17 18 18 19 20 20 20 19 17 16 16 17 18 19 19 20 22 25 27 28 29 31 32 32 32 33 34 35 36 37 37 37
1 1 0 1 3 6 7 4 1 1 5 10 13 14 14 14 13 13 11 11 13 12 10 9 7 5 4 4 3 3 4 5 4 3 2 2 2 1 2 5 5 4 5 5 6 6 6 7 8 11 14 16 17 18 20 22 22 22 22 22 21 19 17 16 16 17 18 19 20 22 24 26 27 29 31 32 34 34 34 34 35 36 37 37 37 37
3 3 2 3 3 6 8 4 2 3 8 9 4 5 8 10 10 9 9 10 10 8 7 8 7 3 4 3 4 5 2 2 2 2 3 3 3 4 5 5 4 4 5 5 5 5 7 10 13 13 12 12 13 15 17 16 16 15 14 13 12 12 12 13 15 18 20 22 25 26 28 29 29 30 31 32 33 33 34 35 35 36 37 36 36 36
4 4 4 3 4 5 5 3 3 9 10 4 2 4 8 7 6 7 9 9 10 10 9 8 5 1 5 5 5 4 1 2 3 5 6 6 5 6 6 6 4 3 3 3 3 5 7 10 12 15 17 17 16 15 14 13 12 11 10 10 12 13 16 19 21 23 24 26 28 29 29 29 29 30 31 32 32 32 33 34 34 35 36 34 34 34
5 4 3 3 3 4 3 4 8 8 5 3 3 5 5 4 5 6 7 8 8 8 5 1 4 6 6 5 4 1 2 4 4 5 7 7 5 4 5 5 4 2 2 3 4 4 7 10 12 15 17 17 16 15 14 14 15 15 16 17 19 22 24 25 25 25 25 26 27 28 28 28 29 31 32 32 31 30 31 32 33 34 35 34 34 34
7 5 3 3 4 4 4 6 7 7 8 7 6 3 1 3 4 4 3 4 5 4 3 4 6 6 5 5 3 1 2 2 4 6 5 2 1 2 0 3 4 4 4 3 2 6 9 11 13 14 14 14 14 13 13 15 17 19 20 22 23 24 25 24 23 24 25 26 27 27 27 28 29 30 30 29 28 29 31 32 34 35 34 33 34 35
5 6 5 5 5 4 4 5 6 7 8 6 3 1 3 4 3 2 0 3 5 4 2 5 7 6 4 3 2 2 1 3 4 6 3 2 3 2 3 5 8 7 2 3 6 9 10 10 12 13 12 11 10 10 13 15 17 17 18 19 20 21 21 21 21 22 24 25 26 27 28 29 29 29 30 30 31 33 34 35 36 36 35 34 34 37
1 2 4 4 5 5 5 6 6 7 6 3 4 3 3 4 5 5 4 4 3 3 1 6 8 5 3 2 3 2 1 1 4 6 3 2 3 2 1 5 9 5 5 8 8 8 9 9 10 11 11 10 9 11 14 16 15 15 16 17 17 18 19 20 21 22 23 25 27 29 30 30 31 32 33 34 35 35 35 37 38 37 37 36 36 38
1 1 3 4 6 7 7 7 6 5 3 3 5 4 4 4 6 6 6 5 2 4 3 5 6 4 4 4 4 3 4 4 5 5 5 4 5 4 4 5 3 4 7 7 8 8 8 9 11 12 11 10 11 14 16 15 16 16 16 17 17 18 19 21 22 24 26 27 28 30 31 32 32 33 33 34 35 36 36 36 37 37 37 37 37 38
1 2 3 6 8 9 10 8 6 5 5 6 6 5 5 4 5 2 8 5 4 6 5 4 5 5 5 5 5 4 5 6 6 6 6 5 6 7 6 1 5 8 6 6 7 8 9 10 11 11 10 11 14 15 15 16 18 18 17 18 18 18 20 23 25 26 27 28 30 31 32 31 31 32 34 35 35 36 36 35 34 35 36 36 37 37
2 1 2 5 6 6 7 7 6 6 3 4 4 2 4 4 1 5 6 4 7 7 6 6 7 7 6 6 6 6 6 7 6 6 6 5 6 6 2 5 7 6 6 6 7 9 10 12 12 11 12 14 14 15 16 19 20 19 19 19 20 21 23 24 25 26 28 30 31 31 31 31 31 32 34 34 33 34 37 37 36 36 36 36 36 37
4 2 3 4 5 4 5 6 7 5 2 5 3 1 1 4 5 5 3 4 7 8 7 7 7 6 6 7 7 7 7 7 6 5 5 6 6 2 4 6 5 5 6 6 7 9 11 13 13 13 15 15 15 16 18 20 20 20 20 21 22 23 24 25 26 29 30 31 32 32 32 32 32 32 31 32 32 34 38 39 37 36 35 33 34 35
3 4 4 4 4 4 4 6 5 3 2 5 6 3 4 5 5 4 4 5 6 6 6 6 6 7 7 6 6 6 6 6 6 5 5 5 2 2 5 5 5 5 6 6 7 9 13 14 15 16 17 16 16 18 19 19 20 21 21 21 23 24 26 28 29 30 31 32 33 33 33 33 32 32 31 32 32 33 34 34 34 33 32 30 31 31
6 7 7 6 5 5 5 5 3 1 2 4 7 6 6 6 6 6 6 5 5 5 5 5 6 7 6 6 6 6 5 5 6 5 4 2 2 4 4 5 5 5 5 6 8 11 13 15 16 19 20 18 18 19 19 18 19 21 22 23 24 26 28 30 31 32 32 33 33 33 34 34 34 33 32 31 30 30 30 30 30 30 29 28 28 28
7 6 5 5 6 5 5 6 6 6 8 6 6 6 7 7 8 7 7 6 7 7 6 6 6 6 6 6 5 5 5 6 6 5 3 1 3 4 3 4 4 4 5 7 9 12 14 16 18 19 20 21 20 19 18 17 17 20 23 25 26 28 29 30 32 32 32 32 33 34 34 34 34 33 31 30 29 28 29 29 29 29 28 27 27 27
6 7 7 6 7 7 5 5 6 7 9 8 7 7 7 8 8 8 7 7 7 7 7 7 6 6 6 6 6 6 6 6 6 5 2 1 2 3 3 3 3 4 5 7 9 12 15 17 18 19 20 21 21 20 19 19 19 21 24 26 27 29 30 30 30 31 32 32 34 34 33 32 33 32 31 30 29 29 29 29 29 29 28 27 27 26
4 6 7 7 8 8 7 7 8 9 10 9 7 6 6 8 10 9 8 7 6 5 5 5 6 6 6 6 6 7 6 5 5 4 1 1 1 2 3 3 3 4 6 8 9 12 15 16 17 18 20 21 22 21 20 21 22 24 25 27 28 29 30 30 29 30 32 33 33 32 31 31 32 32 32 31 30 29 29 29 29 29 29 29 29 29
3 5 6 5 6 6 6 7 8 8 10 10 10 9 9 10 11 10 9 8 6 5 6 5 5 6 6 6 6 6 6 5 4 3 2 2 1 2 2 3 4 5 7 8 10 13 15 15 16 18 20 21 22 22 22 23 25 27 27 28 29 29 29 31 31 31 32 32 31 31 32 31 31 31 31 31 31 30 30 30 30 31 31 32 31 32
4 7 8 5 5 7 7 8 7 7 8 9 10 11 11 11 10 9 8 7 7 7 7 6 5 5 5 6 6 6 6 5 4 4 3 2 1 2 2 4 5 7 8 10 13 14 14 14 16 19 21 22 22 22 24 26 28 29 29 29 29 29 29 31 32 31 31 31 31 31 31 31 30 31 31 31 31 31 31 31 30 30 32 33 33 33
8 10 9 6 7 9 10 9 8 7 8 8 8 9 9 7 8 9 9 8 8 8 8 8 7 6 5 5 6 7 6 5 4 5 3 2 1 1 3 4 6 8 10 13 14 14 14 16 18 19 20 21 22 23 26 28 30 30 29 29 29 30 30 31 30 30 31 31 31 31 31 30 30 30 30 30 30 30 30 30 30 30 31 33 34 35
Wind_Direction
154 172 187 203 222 236 238 234 241 247 254 265 272 272 274 281 280 282 285 284 292 291 283 291 293 299 303 291 278 272 269 269 272 270 265 273 294 41 75 80 80 79 69 60 53 44 36 31 27 25 26 28 30 32 36 39 40 41 45 48 47 46 46 146 210 209 205 201 203 206 209 213 216 219 221 223 224 224 226 230 232 235 234 229 223 222
127 200 218 216 226 240 248 257 268 272 278 284 288 288 288 284 279 282 284 284 299 306 291 307 297 294 296 285 275 273 276 273 266 260 262 286 50 76 88 85 80 76 62 53 48 39 34 29 27 27 27 28 29 30 35 37 36 39 46 47 45 48 54 52 96 171 195 206 209 211 216 221 223 225 228 230 231 229 229 232 236 240 237 230 226 225
183 229 234 228 232 244 255 264 272 275 279 286 293 297 292 280 283 285 276 285 350 30 309 309 297 294 287 277 274 275 273 263 259 269 37 68 75 66 70 77 73 66 57 50 41 33 33 29 27 28 29 29 28 30 34 37 38 40 44 43 42 46 51 49 60 85 81 138 196 194 183 193 201 208 220 224 227 228 230 233 237 241 240 238 235 232
197 229 234 230 233 243 254 259 266 273 268 259 266 275 275 275 284 277 280 336 357 320 293 293 289 284 276 272 271 272 261 251 259 73 71 74 78 72 68 66 61 60 54 49 40 29 29 29 28 28 28 30 30 32 33 34 36 38 41 42 39 41 47 50 57 70 61 66 137 183 170 131 152 162 200 215 222 227 229 231 234 238 242 243 242 239
235 258 256 230 234 244 260 273 271 276 278 260 245 246 259 267 270 275 321 345 333 304 293 301 294 257 260 273 280 280 264 252 87 86 81 76 79 78 73 66 60 58 50 46 41 26 26 29 28 27 28 31 32 33 32 33 35 39 43 44 40 38 42 47 51 60 58 55 71 93 62 40 249 260 269 264 256 246 241 239 239 242 245 244 245 243
250 271 275 211 232 251 264 271 262 247 274 275 251 247 260 276 286 304 340 350 339 306 293 9 336 255 257 303 308 290 275 286 87 95 91 81 76 70 71 71 67 61 52 46 39 31 30 31 32 29 27 29 32 32 33 35 37 42 47 46 43 40 40 43 44 53 61 59 58 57 57 56 43 5 324 308 286 257 255 255 248 250 252 250 249 247
246 189 61 92 219 233 239 262 260 228 249 266 256 290 304 326 331 329 346 359 321 274 258 350 315 265 257 278 272 264 261 95 87 87 82 77 72 68 69 68 70 66 57 48 40 34 31 31 34 30 26 26 30 32 34 37 38 41 47 49 47 43 40 42 44 49 56 54 54 55 56 56 47 35 22 11 8 336 288 287 261 255 258 257 255 252
205 133 72 62 176 200 217 254 243 189 193 244 256 359 0 1 342 326 330 271 248 276 277 245 233 260 273 247 247 247 215 103 94 84 78 83 80 76 70 62 66 67 62 55 44 34 27 28 34 34 29 27 30 34 36 37 37 38 43 49 51 48 46 46 47 53 54 50 50 52 55 58 53 44 35 23 18 16 345 299 282 276 271 267 267 261
151 149 155 159 165 197 213 241 242 179 185 220 80 28 15 1 315 298 280 259 270 304 288 231 190 237 276 250 251 235 143 109 116 116 110 114 101 94 86 71 62 58 59 58 49 40 26 23 30 35 32 29 32 37 39 38 38 39 42 48 51 50 49 49 51 59 62 57 52 52 56 54 47 41 38 35 27 24 20 344 297 286 280 276 278 276
123 152 183 164 172 209 214 240 348 95 196 202 12 6 331 273 255 263 257 266 300 290 265 237 186 195 288 276 271 139 119 135 141 127 120 113 100 97 94 86 74 57 50 51 50 45 34 26 27 32 33 31 32 37 41 40 38 39 41 44 48 47 48 50 52 58 65 65 60 58 60 54 46 39 34 34 30 21 15 5 346 319 298 284 280 281
199 88 26 197 212 209 144 104 38 60 139 116 359 349 315 270 230 230 239 240 326 268 257 249 199 179 278 285 269 51 131 160 146 133 130 109 87 78 78 79 75 65 50 48 48 42 38 34 30 30 30 30 32 36 40 39 35 37 40 42 46 45 46 49 51 53 57 60 59 59 62 58 50 44 37 34 28 17 9 3 356 342 326 308 291 284
195 150 228 225 239 190 105 79 21 64 75 70 35 359 334 303 197 107 308 106 221 251 272 310 215 171 232 283 314 338 228 165 155 153 147 126 104 88 75 67 61 56 49 41 38 32 32 32 30 27 26 27 30 33 37 36 33 35 40 44 45 44 44 46 48 49 51 54 54 55 59 59 53 46 41 35 26 19 13 6 359 352 344 334 319 302
210 207 203 176 298 179 119 57 1 30 70 102 130 86 346 321 336 323 293 187 223 241 233 344 20 254 244 275 283 287 283 135 129 136 135 125 115 105 90 82 69 58 54 43 35 29 23 23 22 21 21 23 27 29 32 33 29 32 40 45 46 45 44 46 47 47 47 48 48 48 51 54 52 48 44 37 25 18 14 6 360 356 351 343 337 329
291 249 182 152 331 179 156 154 178 272 154 155 165 159 168 274 300 267 260 260 252 263 246 197 3 300 259 272 276 295 31 61 76 94 106 107 107 103 96 90 77 68 63 53 45 33 22 21 19 20 21 20 22 25 28 27 24 28 37 43 45 45 45 47 49 48 48 48 48 47 48 49 48 44 40 33 23 15 9 2 354 349 345 338 333 328
244 309 182 174 207 164 175 200 190 109 156 189 188 143 157 208 244 257 267 274 275 284 285 286 308 276 229 243 118 95 76 68 75 80 85 88 93 96 93 84 74 65 54 49 47 37 30 28 23 24 25 20 20 21 22 21 18 25 34 39 42 42 42 45 48 50 50 49 50 51 50 50 48 44 39 31 24 19 14 7 358 350 344 334 324 317
212 250 182 159 196 158 178 235 183 76 119 219 88 93 148 204 211 263 275 262 280 294 283 265 256 253 257 272 245 110 92 82 83 85 88 87 84 84 81 73 69 58 43 39 36 28 31 32 29 27 25 22 20 19 18 16 13 22 32 38 41 41 43 44 45 48 50 50 52 52 51 51 49 46 42 35 30 27 22 15 7 355 344 335 326 319
216 238 141 91 258 164 166 315 89 89 116 82 77 153 231 199 150 254 278 263 263 270 266 254 264 279 294 287 287 97 96 94 93 90 88 85 79 73 68 62 54 47 44 39 30 26 31 32 31 28 24 22 20 16 14 14 16 25 32 36 38 41 45 46 45 45 46 48 49 49 50 50 49 47 42 37 34 33 30 26 18 5 353 344 334 324
219 260 214 190 235 265 327 5 29 8 102 120 201 213 247 338 87 209 259 269 254 252 257 259 275 289 291 284 25 111 121 115 103 98 92 84 79 74 69 63 49 37 45 50 39 30 36 38 32 26 23 20 17 10 10 17 25 32 37 39 39 40 42 43 44 44 42 42 43 44 46 46 46 45 42 40 37 36 35 31 25 17 8 359 349 338
32 294 269 261 189 251 286 35 25 330 58 124 202 135 105 173 280 243 199 213 245 256 259 248 264 276 267 278 328 122 141 124 110 107 101 93 92 90 90 98 101 112 79 80 69 32 40 46 27 11 5 1 1 1 6 18 26 32 36 39 41 41 41 41 41 42 39 37 36 36 38 40 41 41 39 38 36 35 34 31 26 21 15 10 4 354
42 162 277 359 68 74 356 74 151 282 346 68 48 12 123 176 212 226 230 240 243 259 269 254 256 267 281 340 7 29 84 106 104 96 89 90 104 114 133 148 165 185 196 199 160 160 38 26 1 353 347 346 352 356 3 12 19 26 31 34 37 37 38 39 38 38 38 37 35 34 35 35 35 35 34 33 31 30 30 28 25 23 19 16 12 3
29 221 250 311 63 57 322 205 190 232 268 82 58 322 254 221 253 275 268 244 237 257 268 265 257 250 337 10 29 44 52 72 88 91 87 91 111 137 164 173 191 199 205 230 224 206 243 305 319 318 321 329 339 345 354 6 13 23 29 32 34 33 34 34 33 33 34 34 34 32 32 31 30 29 29 28 27 26 25 23 21 19 16 15 13 10
346 281 269 283 292 263 238 243 305 341 333 162 169 209 230 228 231 268 262 236 230 247 243 255 261 243 136 355 59 76 72 85 104 117 130 156 172 186 193 189 196 201 200 214 217 211 229 259 278 280 283 289 299 317 339 357 5 14 21 25 28 29 29 29 29 30 30 31 32 30 29 28 27 26 24 23 21 20 19 18 16 14 12 11 10 9
66 91 261 267 265 264 269 280 298 300 284 256 230 217 255 238 181 228 257 261 264 273 268 251 254 223 182 250 120 116 128 132 143 150 155 182 196 191 194 198 202 207 202 203 209 207 212 231 250 257 262 270 287 317 339 353 359 4 8 10 14 18 19 19 21 23 24 25 25 23 23 23 22 22 21 19 15 13 11 9 7 6 6 6 6 5
63 89 200 253 269 283 285 280 279 305 289 260 276 28 50 11 303 229 234 266 261 253 271 261 250 234 246 257 209 134 138 142 164 169 167 189 198 189 191 191 195 203 199 206 217 216 222 235 246 254 270 297 327 343 349 353 356 360 1 360 2 7 8 9 11 12 13 13 11 9 10 10 10 9 10 9 7 5 4 2 360 359 357 357 357 357
24 139 137 225 293 305 299 291 327 19 20 56 321 344 48 317 302 273 229 242 234 225 240 256 258 253 207 216 221 180 152 157 183 188 188 195 191 187 187 180 181 186 191 217 225 222 244 259 265 283 320 341 345 347 349 349 349 352 353 353 353 354 359 4 5 5 6 4 2 1 358 357 356 354 353 353 353 353 353 352 353 353 352 350 348 348
215 209 144 171 243 255 270 273 241 52 16 7 277 293 299 289 289 293 278 266 261 258 271 272 271 281 278 260 264 247 147 170 204 212 218 211 178 167 168 170 177 177 203 237 232 218 236 254 264 290 334 348 346 346 348 349 348 346 346 349 349 344 350 358 359 360 1 357 355 354 349 345 344 343 339 336 337 340 339 338 341 344 345 344 341 340
108 244 210 207 228 240 252 267 287 324 310 291 290 292 286 279 277 274 257 259 278 310 291 265 267 283 290 286 291 313 351 262 262 248 230 202 155 141 141 150 149 216 248 251 261 268 268 272 280 301 345 354 352 346 346 346 344 341 338 340 343 340 341 348 348 350 354 350 345 344 341 337 335 335 332 327 326 329 329 328 329 333 338 337 335 334
116 241 228 215 232 245 255 272 292 304 290 279 284 282 278 278 272 253 248 260 295 301 271 265 276 283 282 286 296 303 300 294 287 259 208 167 149 137 128 135 152 294 278 273 282 286 284 283 285 292 307 324 333 335 337 334 331 331 326 326 330 329 330 333 333 337 342 340 336 336 333 330 330 331 328 322 319 322 324 323 323 326 330 331 330 329
118 245 251 246 257 261 266 274 280 286 287 285 278 275 277 275 265 257 259 263 260 260 267 279 283 279 278 285 290 298 307 313 316 317 118 116 126 131 131 166 236 257 261 261 261 262 263 262 262 267 278 293 301 307 312 310 309 309 307 310 314 313 313 314 315 321 326 325 323 324 321 321 324 327 323 318 318 320 321 320 320 323 325 327 327 326
115 241 251 250 270 271 267 271 282 291 290 286 276 272 271 269 268 269 271 267 258 259 267 274 273 272 277 284 288 312 7 39 64 66 74 90 114 131 153 209 245 257 257 255 253 251 249 247 247 255 266 275 282 287 291 290 291 293 295 299 301 300 299 298 300 307 312 313 315 317 317 318 321 321 318 316 317 319 318 318 318 319 321 321 322 321
256 245 250 103 286 277 265 262 274 274 272 275 273 268 263 265 269 268 266 266 265 263 262 262 266 270 276 293 49 72 67 70 70 71 82 100 109 105 143 274 274 280 283 279 271 265 257 249 248 253 256 258 261 264 265 267 270 272 275 279 282 284 287 288 291 299 306 311 314 316 317 319 320 319 316 315 315 315 314 314 314 314 314 314 314 315
241 265 346 92 254 269 272 280 275 263 268 266 262 260 259 261 264 261 261 263 264 267 269 268 268 267 247 126 106 83 55 57 49 43 51 45 59 69 347 294 289 296 304 307 307 300 286 271 255 248 250 254 257 257 257 260 262 262 264 269 273 277 281 282 287 295 304 309 311 313 316 317 316 314 312 311 311 311 311 309 308 307 307 307 308 309
174 149 299 233 250 262 271 286 315 283 277 265 255 251 250 252 254 256 260 258 255 259 266 264 255 230 205 185 134 90 52 46 35 23 21 340 331 2 281 276 286 311 313 312 317 318 316 313 298 276 263 258 259 261 262 263 262 262 266 271 276 280 283 285 291 299 305 309 310 310 311 311 309 307 305 305 305 305 305 303 301 301 301 301 302 303
190 183 214 241 251 260 272 303 71 209 252 259 235 196 224 243 250 252 255 254 253 254 256 263 261 211 163 143 113 99 61 17 3 297 283 282 271 265 269 268 276 302 311 321 335 339 337 336 337 335 321 304 298 296 293 289 284 281 284 292 298 303 307 310 311 312 311 310 308 305 303 303 302 299 297 297 297 297 296 295 294 294 295 295 297 298
197 200 209 227 239 255 277 310 247 237 244 249 159 193 230 241 231 239 253 255 257 264 270 281 293 96 106 95 92 92 35 298 287 277 274 263 243 243 255 258 256 273 311 325 324 318 324 340 359 9 7 360 355 350 347 351 351 344 344 344 340 333 328 325 321 315 311 306 303 301 299 299 298 296 295 294 292 291 290 290 290 289 290 291 292 292
196 201 203 214 232 251 247 224 236 253 265 263 246 237 232 209 198 228 254 255 250 256 259 251 80 90 99 97 86 68 269 277 292 280 262 255 246 231 231 242 244 224 235 275 285 316 357 18 25 18 9 6 5 360 358 360 353 344 337 331 328 325 323 322 318 313 309 305 303 302 301 300 299 297 295 294 292 292 292 292 292 291 290 290 290 289
202 200 207 225 230 228 226 229 248 286 291 268 261 266 198 156 180 205 240 256 247 236 202 149 120 108 108 110 107 279 275 330 330 293 266 249 89 91 209 279 277 254 245 273 353 35 37 31 24 15 6 3 2 358 355 349 340 334 328 322 321 322 321 320 316 311 308 306 304 305 304 305 304 301 299 299 299 299 298 298 296 294 292 291 289 288
208 202 198 221 238 226 234 249 256 275 274 247 212 88 88 97 99 103 29 279 267 260 202 138 128 118 108 118 177 260 326 20 327 286 277 60 63 48 18 332 306 297 316 57 56 48 35 18 14 12 2 356 358 356 350 342 335 331 326 320 320 319 316 315 311 309 308 306 306 307 307 307 306 304 303 303 302 301 300 298 296 293 292 290 288 286
237 221 186 212 248 236 236 251 246 254 264 213 172 152 129 115 72 33 347 300 265 265 158 118 125 131 137 192 230 207 142 309 279 263 259 316 340 10 4 300 299 319 64 74 57 40 29 16 10 8 4 6 7 354 344 338 334 331 325 319 318 315 312 311 310 309 308 306 306 306 306 306 305 303 302 301 300 299 298 296 294 292 291 288 286 285
178 220 177 208 238 234 233 245 246 251 257 206 188 179 169 136 69 30 309 281 222 232 213 136 143 169 176 202 223 192 189 221 241 247 261 305 322 311 287 285 309 65 79 63 34 21 17 10 5 6 11 11 357 344 339 336 335 331 324 318 317 314 312 312 311 310 308 306 306 305 305 305 304 302 301 301 300 300 298 296 295 294 292 290 287 285
189 203 197 211 225 230 234 243 252 252 234 213 210 187 148 96 56 298 265 252 186 222 231 180 193 216 198 203 217 211 219 225 226 248 276 303 305 295 296 340 96 90 70 41 19 7 3 3 2 2 360 352 344 341 339 337 335 331 325 322 318 314 314 313 312 310 308 307 306 306 305 305 304 303 302 302 302 301 299 297 296 295 294 292 289 287
152 133 233 226 224 227 231 239 255 264 226 185 214 218 130 107 150 234 231 178 170 209 229 211 217 226 214 217 223 223 235 241 239 257 277 281 279 287 330 83 90 70 35 19 10 359 354 356 355 348 343 343 343 340 338 336 333 329 325 322 318 316 315 314 312 310 309 309 309 308 308 306 305 305 304 303 304 302 299 298 297 295 293 291 289 287
179 171 232 225 207 210 230 237 243 260 220 141 120 6 174 181 209 219 211 188 189 201 212 215 220 222 217 226 234 231 237 248 250 256 264 270 276 284 98 94 75 42 26 19 9 357 350 349 347 341 338 340 339 337 337 335 331 327 323 320 318 318 317 315 314 313 313 313 312 310 310 308 307 307 306 304 303 301 299 299 298 297 294 292 290 288
210 192 220 230 193 176 212 231 209 194 194 165 154 186 219 208 211 212 215 222 212 203 206 215 229 229 215 213 226 235 246 258 261 264 271 277 285 98 97 79 53 39 34 26 8 352 346 344 340 333 331 334 334 334 335 333 328 323 320 318 319 320 319 318 318 316 315 314 313 311 311 310 309 308 306 304 303 300 298 299 299 298 297 295 293 291
214 199 212 235 229 195 210 240 231 210 251 198 173 190 219 233 244 238 227 231 237 233 227 222 230 233 215 198 212 233 248 258 262 265 265 257 106 94 75 54 48 42 29 14 355 342 339 338 334 328 326 328 332 332 331 331 327 319 316 319 321 321 321 320 319 317 315 315 314 313 313 311 310 309 307 305 304 300 297 298 298 298 298 297 295 292
224 221 218 234 256 259 249 254 266 281 275 250 208 205 218 231 245 245 237 239 243 242 235 219 214 215 198 181 194 224 236 244 257 266 261 145 94 81 64 53 49 34 10 355 344 336 333 331 328 325 324 324 328 330 328 327 324 317 315 319 321 321 321 320 318 316 315 315 314 314 314 312 310 309 308 307 304 300 298 297 297 296 296 296 294 291
237 242 241 240 254 263 257 245 245 253 257 252 243 239 236 238 245 245 241 242 240 237 231 212 193 182 171 168 187 217 230 234 243 255 263 91 89 76 66 56 43 25 359 345 338 330 329 328 325 323 322 322 323 326 325 323 322 319 318 320 321 321 321 319 317 315 314 314 314 314 313 311 309 309 309 308 305 302 298 296 295 293 293 292 290 289
227 230 236 237 241 246 247 244 245 250 254 252 248 246 245 248 250 248 247 247 237 215 197 178 162 158 165 180 195 207 219 222 221 230 237 92 87 71 60 46 27 3 341 333 329 325 325 324 320 319 319 318 319 322 322 321 322 321 321 321 322 322 320 318 317 315 313 313 313 312 312 311 309 308 307 305 303 300 298 296 294 291 288 287 286 284
242 244 244 242 248 255 253 245 247 260 262 255 249 246 245 249 252 251 255 255 235 188 161 158 164 167 173 180 179 183 203 210 191 181 193 181 113 59 46 20 349 332 326 323 320 320 321 318 316 317 315 314 317 320 320 320 321 322 322 322 323 323 321 318 316 314 312 311 312 311 311 309 307 305 304 302 301 299 296 295 293 289 287 286 284 282
242 251 253 254 260 262 258 245 239 248 255 253 249 243 239 241 243 244 249 247 221 189 174 173 172 163 159 164 162 168 190 196 162 141 151 149 92 40 10 344 328 320 318 317 316 317 316 314 315 315 313 313 317 319 319 319 320 321 322 323 324 323 321 318 316 313 311 311 310 308 307 306 304 303 303 301 300 299 297 295 292 290 289 289 289 287
228 237 238 239 246 251 254 246 230 229 246 252 249 245 239 230 225 231 238 232 209 190 179 175 174 173 169 163 161 167 172 161 136 128 126 114 75 355 332 324 319 316 314 314 315 315 314 314 315 314 312 313 316 317 317 317 317 319 323 325 325 324 320 317 314 311 310 309 307 305 305 304 303 303 302 300 299 299 298 296 294 292 290 290 291 292